User: anonymous   Login
Location: Erdweis
(48.5167°N, 15.3500°E)
Time: 02:13:40
(UTC+00:00)
Language:

Cosmos 1626 - Orbit

View from above orbital plane
View from above orbital plane
View from above satellite
View from above satellite

Ground track
Ground track

The orbit data is extracted from the following two-line orbital elements,

1 15494U 85009A   20338.96981562  .00002171  00000-0  87137-4 0  9998
2 15494  82.4807  61.2223 0001021 337.3682  22.7510 15.24458910961200
Epoch (UTC): 03 December 2020 23:16:32
Eccentricity: 0.0001021
inclination: 82.4807°
perigee height: 492 km
apogee height: 493 km
right ascension of ascending node: 61.2223°
argument of perigee: 337.3682°
revolutions per day: 15.24458910
mean anomaly at epoch: 22.7510°
orbit number at epoch: 96120

The dashed part of the orbit path shows where the satellite is in the earth's shadow,  

DLR